#timestamp,LO_Frequency,Hit 
1503828015.3,286046991.6,N
1503828035.1,286046987.2,N
1503828055.8,286046987.0,N
1503828075.7,286046988.5,N
1503828095.5,286046990.7,N
1503828115.3,286046990.4,N
1503828135.2,286046988.9,N
1503828155.9,286046988.8,N
1503828175.7,286046992.5,N
1503828195.6,286046994.0,N
1503828215.4,286046991.7,N
1503828235.2,286046989.0,P
1503828255.1,286046999.9,N
1503828256.0,286046999.9,N
1503828275.8,286047002.8,N
1503828295.6,286046999.3,N
1503828315.5,286046999.4,N
1503828335.3,286046999.3,N
1503828355.1,286046997.7,N
1503828375.9,286046997.7,N
1503828395.7,286046997.7,N
1503828415.5,286046997.8,N
1503828435.4,286046999.2,N
1503828455.2,286047000.8,N
1503828475.0,286047000.9,N
1503828475.9,286047000.9,N
1503828495.7,286046999.1,N
1503828515.6,286046997.6,N
1503828535.4,286046995.3,N
1503828555.2,286046996.9,N
1503828575.1,286046998.6,N
1503828576.0,286046998.6,N
1503828595.8,286046998.4,N
1503828615.6,286046997.4,N
1503828635.5,286046998.1,N
1503828655.3,286046998.5,N
1503828675.1,286047000.8,N
1503828695.9,286046998.1,N
1503828715.7,286046999.4,N
1503828735.5,286046997.0,N
1503828755.4,286046996.5,N
1503828775.2,286046998.2,N
1503828795.3,286046996.9,N
1503828815.1,286046995.5,N
1503828835.9,286046993.4,P
1503828855.7,286046994.9,N
1503828875.5,286046996.8,N
1503828895.4,286046997.6,N
1503828915.2,286046997.0,N
1503828935.0,286046996.9,N
1503828935.9,286046996.9,N
1503828955.8,286047000.9,N
1503828975.6,286047003.7,N
1503828995.4,286047002.9,N
1503829015.3,286047005.2,N
1503829035.1,286047009.0,N
1503829036.0,286047009.0,N
1503829055.8,286047009.6,N
1503829075.7,286047011.5,N
1503829095.5,286047011.7,N
1503829115.3,286047009.8,N
1503829135.2,286047010.5,N
1503829155.9,286047007.8,N
1503829175.7,286047004.7,N
1503829195.6,286047005.3,N
1503829215.4,286047001.4,N
1503829235.2,286047000.6,N
1503829255.0,286046998.3,N
1503829255.9,286046998.3,N
1503829275.8,286046999.0,N
1503829295.6,286046998.6,N
1503829315.4,286046998.2,N
1503829335.3,286046996.6,N
1503829355.1,286046996.9,N
1503829375.8,286046997.6,N
1503829395.7,286046997.3,N
1503829415.5,286046996.8,N
1503829435.3,286046996.7,N
1503829455.2,286046994.9,N
1503829475.9,286046994.1,N
1503829495.7,286046992.6,N
1503829515.6,286046991.8,N
1503829535.4,286046993.6,N
1503829555.2,286046995.8,N
1503829575.1,286046993.3,N
1503829576.0,286046993.3,N
1503829595.8,286046993.6,N
1503829615.6,286046993.8,N
1503829635.5,286046991.7,N
1503829655.3,286046992.1,N
1503829675.6,286046992.1,N
1503829695.4,286046995.2,N
1503829715.3,286046995.9,N
1503829735.1,286046992.2,N
1503829736.0,286046992.2,N
1503829755.8,286046991.4,P
1503829775.7,286046994.3,N
1503829795.5,286046995.3,N
1503829815.3,286046993.3,P
1503829835.2,286047000.2,N
1503829855.9,286046998.7,N
1503829875.7,286046999.2,N
1503829895.6,286046997.3,N
1503829915.4,286046997.2,N
1503829935.2,286046997.5,N
1503829955.1,286047000.0,N
1503829956.0,286047000.0,N
1503829975.8,286046999.3,N
1503829995.6,286046998.4,N
1503830015.5,286046996.7,N
1503830035.3,286046995.6,N
1503830055.1,286046995.5,N
1503830075.8,286046994.1,N
1503830095.7,286046993.8,N
1503830115.5,286046996.1,N
1503830135.4,286046993.0,P
1503830155.2,286046997.9,N
1503830175.0,286046996.7,N
1503830175.9,286046996.7,N
1503830195.8,286047000.5,N
1503830215.6,286047003.1,N
1503830235.4,286047009.2,P
1503830255.3,286047012.2,N
1503830275.1,286047011.6,N
1503830276.0,286047011.6,N
1503830295.8,286047011.7,N
1503830315.7,286047013.3,N
1503830335.5,286047012.0,N
1503830355.3,286047012.1,N
1503830375.1,286047011.0,N
1503830395.9,286047012.6,N
1503830415.7,286047016.4,P
1503830435.5,286047006.4,N
1503830455.4,286047009.0,N
1503830475.2,286047008.4,N
1503830495.0,286047009.3,N
1503830495.9,286047009.3,N
1503830515.8,286047011.6,P
1503830535.6,286046998.2,N
1503830555.5,286046996.7,N
1503830575.3,286046995.2,N
1503830595.1,286046996.8,N
1503830615.8,286046999.5,N
1503830635.7,286046997.8,N
1503830655.5,286046995.6,N
1503830675.3,286046997.8,N
1503830695.2,286046996.1,N
1503830715.9,286046994.5,N
1503830735.7,286046992.4,N
1503830755.6,286046990.9,N
1503830775.4,286046987.4,N
1503830795.2,286046987.2,N
1503830815.1,286046985.5,N
1503830816.0,286046985.5,N
1503830835.8,286046984.5,N
1503830855.6,286046982.7,N
1503830875.5,286046982.6,N
1503830895.3,286046983.9,N
1503830915.1,286046985.4,N
1503830935.8,286046987.2,N
1503830955.7,286046991.6,N
1503830975.5,286046988.9,N
1503830995.3,286046989.5,N
1503831015.2,286046986.7,N
1503831035.9,286046985.0,N
1503831055.7,286046984.5,N
1503831075.6,286046982.1,N
1503831095.4,286046984.8,N
1503831115.2,286046982.7,P
1503831135.1,286046992.2,N
1503831136.0,286046992.2,N
1503831155.8,286046992.4,N
1503831175.6,286046988.5,P
1503831195.5,286047000.5,N
1503831215.3,286047002.4,N
1503831235.1,286047001.4,N
1503831255.9,286047001.8,N
1503831275.7,286047001.7,N
1503831295.5,286047004.1,N
1503831315.4,286047004.8,N
1503831335.2,286047007.6,N
1503831355.0,286047005.1,N
1503831355.9,286047005.1,N
1503831375.8,286047008.8,N
1503831395.6,286047010.2,N
1503831415.4,286047010.5,N
1503831435.3,286047010.7,N
1503831455.1,286047010.7,N
1503831456.0,286047010.7,N
1503831475.8,286047010.0,N
1503831495.7,286047014.0,N
1503831515.5,286047010.9,N
1503831535.3,286047007.7,N
1503831555.1,286047009.2,N
1503831575.9,286047007.3,N
1503831595.7,286047009.2,N
